Lid_Strength_Index
4 4 4 4 5 4 4 4 4 4 4 3 3 3 3 3 3 5 7 5 3 0 1 3 5 5 5 6 5 5 9 10 9 10 9 7 8 6 5 6 6 5 6 5 3
4 4 4 4 4 4 4 3 3 3 3 3 3 3 3 3 6 7 4 2 1 1 4 6 7 6 7 7 6 7 9 9 8 8 8 8 8 7 8 8 7 7 6 5 4
4 4 4 4 4 4 4 4 3 3 3 3 3 3 2 4 8 8 4 2 2 2 4 5 6 7 9 8 7 7 9 8 8 8 8 8 8 7 8 9 8 8 7 5 5
4 4 4 4 4 4 4 4 3 3 3 3 3 3 2 6 12 6 4 3 3 3 5 6 7 9 9 10 8 10 8 9 9 8 9 9 8 9 9 8 7 7 7 6 6
4 4 4 3 4 3 3 3 3 3 3 3 3 2 5 9 9 5 4 4 4 4 6 7 8 8 10 10 10 10 9 9 9 9 9 9 10 10 9 7 7 7 7 6 6
4 4 3 3 3 3 3 3 3 3 3 3 3 3 7 11 6 5 5 5 5 6 7 7 8 8 9 10 10 9 9 9 9 9 10 11 10 11 9 8 8 8 8 7 6
4 4 5 5 4 3 4 4 3 3 3 3 3 6 8 8 5 5 5 5 5 6 7 6 7 8 8 10 9 10 11 10 10 10 10 10 11 11 9 9 8 8 8 7 7
4 4 5 5 5 4 4 4 3 3 3 3 4 6 9 6 5 6 5 6 6 6 6 6 7 8 9 9 10 11 10 12 10 10 10 10 12 10 10 9 9 8 8 7 7
4 4 4 5 5 5 5 4 3 4 4 4 6 7 10 6 8 6 6 7 6 6 7 7 7 8 9 11 11 10 12 11 12 11 11 11 11 10 10 9 9 8 8 8 7
4 4 4 4 5 5 4 5 4 5 6 7 7 9 9 10 8 7 6 7 7 7 8 8 9 10 10 11 13 12 13 12 13 12 12 12 12 10 9 9 9 8 8 8 8
3 4 4 4 5 5 5 7 9 9 8 9 10 10 10 9 8 8 7 8 8 9 11 10 11 12 11 11 12 12 13 13 11 12 14 12 11 10 9 9 10 9 9 9 8
3 3 4 4 5 5 6 9 9 8 10 8 9 9 9 8 11 9 7 10 10 12 11 12 13 11 11 12 13 13 13 13 12 13 13 12 13 10 11 10 10 9 9 9 8
2 3 4 4 5 6 7 9 6 7 11 10 10 10 10 8 11 10 8 10 11 12 12 12 12 12 12 13 14 13 14 13 15 13 12 13 11 13 12 11 10 10 9 9 8
2 3 3 4 7 7 9 8 7 7 12 12 13 11 9 8 11 9 8 10 11 13 12 12 12 13 13 13 13 14 14 14 14 14 14 13 15 11 12 12 11 10 9 9 9
1 2 2 4 7 9 8 7 7 8 18 12 14 10 10 11 11 11 9 10 12 13 12 13 14 14 14 13 13 14 13 14 14 14 15 14 16 12 13 13 12 11 10 9 8
2 2 2 4 6 6 6 7 7 15 20 16 14 13 13 12 12 11 10 10 10 12 12 13 12 13 13 13 13 13 14 14 14 14 17 14 16 12 13 12 12 11 11 10 9
3 2 3 4 7 5 6 8 16 18 15 16 16 14 13 14 13 12 13 13 13 15 14 15 14 13 13 14 13 14 15 19 20 20 18 16 17 12 11 12 11 11 11 10 9
2 2 4 4 6 6 6 12 19 16 14 15 15 14 15 14 14 13 14 14 12 13 13 14 15 15 13 14 13 15 14 18 21 19 15 17 17 12 11 11 11 11 10 10 10
0 2 4 5 5 6 10 17 16 13 14 15 15 16 16 15 14 14 14 14 12 13 14 15 15 15 14 14 14 15 16 15 16 20 17 14 13 11 11 12 12 11 11 10 10
2 4 6 5 5 7 14 15 14 12 13 14 15 14 16 16 16 16 15 12 12 12 10 12 15 16 15 14 14 15 15 16 15 19 20 15 15 13 13 13 11 11 11 10 10
2 6 6 5 5 10 15 14 12 11 12 13 13 14 14 16 15 15 15 13 12 12 11 12 13 17 16 16 16 17 17 17 15 16 19 19 14 10 11 11 10 10 10 10 10
3 11 3 3 12 15 14 12 10 10 11 13 13 14 14 13 15 15 15 14 12 12 14 11 12 17 15 16 15 16 15 15 15 17 17 17 15 11 11 11 11 10 11 11 11
6 6 3 4 12 13 12 11 10 11 11 12 13 12 12 14 15 14 13 14 13 13 13 13 13 17 16 16 17 17 16 15 15 14 17 18 15 11 11 11 11 11 10 10 10
5 11 7 7 9 10 11 11 12 9 11 11 11 11 13 14 14 15 14 14 13 14 12 12 14 15 14 14 14 18 17 16 14 16 15 15 15 10 11 11 9 9 9 9 8
5 10 9 11 11 9 9 10 11 13 10 10 12 12 13 15 15 15 15 15 14 13 13 13 15 16 16 17 16 15 17 17 17 14 15 14 15 11 10 10 12 9 9 10 14
8 9 8 9 7 9 9 11 11 10 11 12 13 12 11 13 13 14 14 15 14 14 14 13 15 16 17 17 17 17 16 16 16 16 17 16 15 10 9 9 10 11 11 10 10
4 4 6 8 8 10 10 10 10 9 8 8 10 11 12 11 10 11 11 11 11 13 14 15 15 16 17 18 16 17 17 17 16 15 14 16 11 10 10 10 9 8 8 9 9